This is the latest recevied weather packets stored in our database for station/object LU3HGB-WX. If no packets are shown the sender has not sent any weather packets the latest 10 day(s).
| Time | Temp. | Humidity | Pressure | Rain* | Wind** | Luminosity | Snow |
|---|---|---|---|---|---|---|---|
| 1788088360 | 0° C | 85% | 1016 hPa | 0 mm | - | 31 W/m² | - |
| 1788088060 | 0° C | 87% | 1016 hPa | 0 mm | - | 28 W/m² | - |
| 1788087760 | 0° C | 85% | 1016 hPa | 0 mm | - | 24 W/m² | - |
| 1788087460 | 0° C | 85% | 1016 hPa | 0 mm | - | 20 W/m² | - |
| 1788087159 | 0° C | 84% | 1016 hPa | 0 mm | - | 15 W/m² | - |
| 1788086859 | 0° C | 84% | 1016 hPa | 0 mm | - | 9 W/m² | - |
| 1788086559 | 0° C | 87% | 1016 hPa | 0 mm | - | 7 W/m² | - |
| 1788086259 | 0° C | 86% | 1016 hPa | 0 mm | - | 3 W/m² | - |
| 1788085959 | 0° C | 85% | 1015 hPa | 0 mm | - | 2 W/m² | - |
| 1788085659 | 0° C | 85% | 1015 hPa | 0 mm | - | 1 W/m² | - |
| 1788085359 | 0° C | 87% | 1015 hPa | 0 mm | - | 0 W/m² | - |
| 1788085060 | 0.56° C | 86% | 1015 hPa | 0 mm | - | 0 W/m² | - |
| 1788084761 | 0.56° C | 86% | 1015 hPa | 0 mm | - | 0 W/m² | - |
| 1788084460 | 0.56° C | 86% | 1015 hPa | 0 mm | - | 0 W/m² | - |
| 1788084160 | 0.56° C | 86% | 1015 hPa | 0 mm | - | 0 W/m² | - |
| 1788083859 | 0.56° C | 84% | 1015 hPa | 0 mm | - | 0 W/m² | - |
| 1788083560 | 0.56° C | 86% | 1015 hPa | 0 mm | - | 0 W/m² | - |
| 1788083259 | 0.56° C | 85% | 1015 hPa | 0 mm | - | 0 W/m² | - |
| 1788082959 | 0.56° C | 86% | 1015 hPa | 0 mm | - | 0 W/m² | - |
| 1788082659 | 0.56° C | 86% | 1015 hPa | 0 mm | - | 0 W/m² | - |
| 1788082359 | 0.56° C | 86% | 1015 hPa | 0 mm | - | 0 W/m² | - |
| 1788082059 | 0.56° C | 86% | 1015 hPa | 0 mm | - | 0 W/m² | - |
| 1788081759 | 0.56° C | 85% | 1015 hPa | 0 mm | - | 0 W/m² | - |
| 1788081459 | 0.56° C | 85% | 1015 hPa | 0 mm | - | 0 W/m² | - |
| 1788081160 | 0.56° C | 84% | 1015 hPa | 0 mm | - | 0 W/m² | - |
* Rain latest hour (hover to see other rain measurements)
** Current wind speed in m/s (hover to see current wind gust speed)